#timestamp,LO_Frequency,Hit,StdDev 
1661270415.7,286046997.2,P
1661270435.6,286046996.9,Y
1661270455.4,286047000.1,P
1661270475.2,286047002.8,N
1661270495.1,286047004.4,N
1661270496.0,286047004.4,N
1661270515.8,286047002.7,N
1661270535.7,286047003.5,N
1661270555.5,286047005.5,N
1661270575.3,286047002.9,N
1661270595.2,286047002.1,N
1661270615.0,286047004.3,N
1661270615.9,286047004.3,N
1661270635.7,286047004.1,N
1661270655.6,286047003.1,N
1661270675.4,286047005.4,N
1661270695.3,286047007.5,Y
1661270715.1,286047006.0,P
1661270735.8,286047005.1,P
1661270755.7,286047002.1,N
1661270775.5,286047001.6,N
1661270795.4,286047000.2,N
1661270815.2,286047004.3,N
1661270835.0,286047004.7,N
1661270835.9,286047004.7,N
1661270855.8,286047007.3,Y
1661270875.6,286047002.6,P
1661270895.5,286047003.9,P
1661270915.3,286047003.0,P
1661270935.1,286047002.5,Y
1661270955.9,286046995.3,P
1661270975.7,286046994.2,N
1661270995.5,286046996.1,N
1661271015.4,286046996.5,N
1661271035.2,286046997.0,N
1661271055.1,286046999.4,N
1661271056.0,286046999.4,N
1661271075.8,286046998.2,N
1661271095.6,286046998.5,N
1661271115.5,286046998.9,N
1661271135.3,286046997.4,N
1661271155.1,286046996.4,N
1661271175.9,286046993.5,N
1661271195.7,286046992.0,Y
1661271215.6,286046996.5,P
1661271235.4,286047011.9,P
1661271255.2,286047001.1,N
1661271275.1,286047004.0,N
1661271276.0,286047004.0,N
1661271295.8,286047001.7,N
1661271315.7,286047001.9,N
1661271335.5,286047002.3,N
1661271355.3,286047001.9,N
1661271375.2,286047001.6,N
1661271395.0,286047002.3,N
1661271395.9,286047002.3,N
1661271415.7,286046998.7,N
1661271435.6,286046999.1,N
1661271455.4,286047002.5,N
1661271475.3,286047002.4,N
1661271495.1,286047001.6,N
1661271515.8,286047006.0,N
1661271535.7,286047001.6,N
1661271555.5,286046999.9,N
1661271575.4,286046998.3,N
1661271595.2,286046996.6,N
1661271615.0,286046997.4,N
1661271615.9,286046997.4,N
1661271635.8,286046997.1,N
1661271655.6,286046997.2,N
1661271675.4,286046997.8,N
1661271695.3,286046995.3,N
1661271715.1,286046998.2,N
1661271735.9,286047004.2,N
1661271755.7,286047007.4,N
1661271775.5,286047007.1,N
1661271795.4,286047003.3,N
1661271815.2,286047001.9,N
1661271835.1,286047004.3,N
1661271836.0,286047004.3,N
1661271855.8,286047003.6,N
1661271875.6,286047004.2,N
1661271895.5,286047001.3,N
1661271915.3,286047002.6,N
1661271935.1,286047002.4,N
1661271955.9,286047000.7,N
1661271975.7,286047002.7,N
1661271995.6,286047001.4,N
1661272015.4,286047002.2,N
1661272035.2,286047003.9,N
1661272055.1,286047004.4,N
1661272056.0,286047004.4,N
1661272075.8,286047006.0,N
1661272095.7,286047005.0,N
1661272115.5,286047001.5,N
1661272135.3,286047000.0,N
1661272155.2,286046998.1,N
1661272175.9,286046998.9,N
1661272195.7,286046998.9,N
1661272215.6,286046997.0,N
1661272235.4,286046997.7,N
1661272255.2,286046999.5,N
1661272275.1,286047002.7,N
1661272276.0,286047002.7,N
1661272295.8,286047001.7,N
1661272315.7,286047004.3,N
1661272335.5,286047001.5,N
1661272355.3,286047003.8,N
1661272375.2,286047001.4,N
1661272395.0,286047004.3,N
1661272395.9,286047004.3,N
1661272415.8,286047001.9,N
1661272435.6,286047002.1,N
1661272455.4,286047001.4,N
1661272475.3,286047001.7,N
1661272495.1,286047001.7,N
1661272515.8,286047000.4,N
1661272535.7,286047000.7,N
1661272555.5,286047002.1,N
1661272575.4,286047002.3,N
1661272595.2,286047002.5,N
1661272615.0,286047002.3,N
1661272615.9,286047002.3,N
1661272635.8,286047002.2,N
1661272655.6,286047005.6,N
1661272675.4,286047005.1,N
1661272695.3,286047004.2,N
1661272715.1,286047001.3,N
1661272735.9,286047000.3,N
1661272755.7,286047000.4,N
1661272775.5,286046999.0,N
1661272795.4,286047002.4,N
1661272815.2,286047004.2,N
1661272835.0,286047001.6,N
1661272835.9,286047001.6,N
1661272855.8,286047000.5,N
1661272875.6,286047000.3,N
1661272895.5,286046999.7,N
1661272915.3,286047002.1,N
1661272935.1,286047001.4,N
1661272955.9,286047001.3,N
1661272975.7,286047002.6,N
1661272995.5,286046999.8,N
1661273015.4,286046999.8,N
1661273035.2,286047001.3,N
1661273055.1,286047005.8,Y
1661273056.0,286047005.8,P
1661273075.8,286047001.7,N
1661273095.6,286047004.0,N
1661273115.5,286047003.4,N
1661273135.3,286047005.6,Y
1661273155.2,286047002.8,P
1661273175.9,286047001.5,P
1661273195.7,286047001.4,N
1661273215.6,286047001.9,N
1661273235.4,286046998.8,N
1661273255.2,286046996.7,N
1661273275.1,286046998.4,N
1661273276.0,286046998.4,N
1661273295.8,286047000.0,N
1661273315.7,286046999.3,N
1661273335.5,286046997.4,N
1661273355.3,286046997.7,N
1661273375.2,286046995.3,N
1661273395.0,286046999.5,N
1661273395.9,286046999.5,N
1661273415.7,286047000.5,N
1661273435.6,286047001.9,N
1661273455.4,286047000.3,N
1661273475.3,286046999.0,N
1661273495.1,286047000.6,N
1661273515.8,286047002.6,N
1661273535.7,286047000.2,N
1661273555.5,286047003.6,N
1661273575.4,286047002.0,N
1661273595.2,286046998.4,N
1661273615.0,286046997.3,N
1661273615.9,286046997.3,N
1661273635.8,286046998.4,N
1661273655.6,286046997.4,N
1661273675.5,286046996.9,N
1661273695.3,286046998.2,N
1661273715.1,286046997.4,N
1661273735.9,286046998.8,N
1661273755.7,286046999.2,N
1661273775.5,286046997.7,N
1661273795.4,286046995.4,N
1661273815.2,286046993.6,Y
1661273835.1,286046993.9,P
1661273836.0,286046993.9,N
1661273855.8,286046994.5,N
1661273875.6,286046993.9,N
1661273895.5,286046995.9,N
1661273915.3,286046992.1,Y
1661273935.2,286046999.1,P
1661273955.9,286047002.8,N
1661273975.7,286047003.2,N
1661273995.6,286047004.3,N
